TimeCDT,TemperatureF,Dew PointF,Humidity,Sea Level PressureIn,VisibilityMPH,Wind Direction,Wind SpeedMPH,Gust SpeedMPH,PrecipitationIn,Events,Conditions,WindDirDegrees,DateUTC
12:15 AM,71.6,57.2,60,30.00,10.0,Calm,Calm,-,N/A,,Clear,0,2013-09-08 05:15:00
12:35 AM,71.6,57.2,60,30.00,10.0,Calm,Calm,-,N/A,,Clear,0,2013-09-08 05:35:00
12:55 AM,71.6,57.2,60,30.00,9.0,Calm,Calm,-,N/A,,Clear,0,2013-09-08 05:55:00
1:15 AM,71.6,57.2,60,29.99,10.0,South,4.6,-,N/A,,Clear,170,2013-09-08 06:15:00
1:35 AM,71.6,57.2,60,29.99,10.0,Calm,Calm,-,N/A,,Clear,0,2013-09-08 06:35:00
1:55 AM,73.4,59.0,61,29.98,10.0,South,4.6,-,N/A,,Clear,170,2013-09-08 06:55:00
2:15 AM,73.4,57.2,57,29.97,10.0,SSE,3.5,-,N/A,,Clear,160,2013-09-08 07:15:00
2:35 AM,73.4,57.2,57,29.97,10.0,Calm,Calm,-,N/A,,Clear,0,2013-09-08 07:35:00
2:55 AM,73.4,57.2,57,29.97,7.0,Calm,Calm,-,N/A,,Clear,0,2013-09-08 07:55:00
3:15 AM,69.8,57.2,64,29.98,10.0,Calm,Calm,-,N/A,,Clear,0,2013-09-08 08:15:00
3:35 AM,69.8,57.2,64,29.98,10.0,Calm,Calm,-,N/A,,Clear,0,2013-09-08 08:35:00
3:55 AM,69.8,57.2,64,29.97,10.0,Calm,Calm,-,N/A,,Clear,0,2013-09-08 08:55:00
4:15 AM,69.8,57.2,64,29.97,10.0,Calm,Calm,-,N/A,,Clear,0,2013-09-08 09:15:00
4:35 AM,69.8,57.2,64,29.98,10.0,Calm,Calm,-,N/A,,Clear,0,2013-09-08 09:35:00
4:55 AM,69.8,55.4,60,29.98,9.0,Calm,Calm,-,N/A,,Clear,0,2013-09-08 09:55:00
5:16 AM,69.8,55.4,60,29.98,8.0,Calm,Calm,-,N/A,,Clear,0,2013-09-08 10:16:00
5:35 AM,69.8,55.4,60,29.98,8.0,Calm,Calm,-,N/A,,Clear,0,2013-09-08 10:35:00
5:55 AM,69.8,55.4,60,29.98,9.0,Calm,Calm,-,N/A,,Clear,0,2013-09-08 10:55:00
6:16 AM,69.8,55.4,60,29.98,10.0,Calm,Calm,-,N/A,,Clear,0,2013-09-08 11:16:00
6:35 AM,68.0,55.4,64,29.99,9.0,Calm,Calm,-,N/A,,Clear,0,2013-09-08 11:35:00
6:55 AM,68.0,55.4,64,29.99,7.0,Calm,Calm,-,N/A,,Clear,0,2013-09-08 11:55:00
7:15 AM,69.8,55.4,60,29.99,8.0,Calm,Calm,-,N/A,,Clear,0,2013-09-08 12:15:00
7:35 AM,69.8,57.2,64,29.99,10.0,Calm,Calm,-,N/A,,Clear,0,2013-09-08 12:35:00
7:55 AM,71.6,57.2,60,29.99,10.0,Calm,Calm,-,N/A,,Clear,0,2013-09-08 12:55:00
8:15 AM,73.4,59.0,61,29.99,10.0,Calm,Calm,-,N/A,,Clear,0,2013-09-08 13:15:00
8:35 AM,77.0,60.8,57,29.99,10.0,South,3.5,-,N/A,,Clear,170,2013-09-08 13:35:00
8:55 AM,78.8,60.8,54,30.00,10.0,Calm,Calm,-,N/A,,Clear,0,2013-09-08 13:55:00
9:15 AM,80.6,60.8,51,30.00,9.0,WSW,3.5,-,N/A,,Clear,240,2013-09-08 14:15:00
9:36 AM,82.4,60.8,48,30.01,10.0,West,4.6,-,N/A,,Clear,260,2013-09-08 14:36:00
9:55 AM,82.4,60.8,48,30.00,10.0,WSW,3.5,-,N/A,,Clear,250,2013-09-08 14:55:00
10:15 AM,84.2,62.6,48,30.00,9.0,West,4.6,-,N/A,,Clear,260,2013-09-08 15:15:00
10:35 AM,86.0,62.6,45,30.00,10.0,WSW,5.8,-,N/A,,Clear,240,2013-09-08 15:35:00
10:55 AM,87.8,62.6,43,30.00,10.0,SW,5.8,-,N/A,,Clear,230,2013-09-08 15:55:00
11:15 AM,89.6,62.6,40,30.00,10.0,SW,5.8,-,N/A,,Clear,220,2013-09-08 16:15:00
11:35 AM,89.6,62.6,40,30.00,10.0,West,4.6,-,N/A,,Clear,260,2013-09-08 16:35:00
11:36 AM,89.6,62.6,40,30.00,10.0,West,4.6,-,N/A,,Clear,270,2013-09-08 16:36:00
11:55 AM,89.6,62.6,40,29.99,10.0,WSW,4.6,-,N/A,,Clear,250,2013-09-08 16:55:00
12:15 PM,91.4,64.4,41,29.99,10.0,WSW,4.6,-,N/A,,Clear,240,2013-09-08 17:15:00
12:35 PM,91.4,64.4,41,29.98,10.0,WSW,8.1,-,N/A,,Clear,250,2013-09-08 17:35:00
12:55 PM,91.4,64.4,41,29.97,10.0,WSW,8.1,-,N/A,,Clear,240,2013-09-08 17:55:00
1:15 PM,91.4,64.4,41,29.96,10.0,SW,8.1,-,N/A,,Clear,230,2013-09-08 18:15:00
1:35 PM,93.2,64.4,38,29.96,10.0,SW,6.9,-,N/A,,Clear,230,2013-09-08 18:35:00
1:56 PM,93.2,64.4,38,29.96,10.0,WSW,6.9,-,N/A,,Clear,240,2013-09-08 18:56:00
2:15 PM,93.2,64.4,38,29.95,10.0,West,3.5,-,N/A,,Clear,270,2013-09-08 19:15:00
2:35 PM,93.2,64.4,38,29.95,10.0,WSW,5.8,-,N/A,,Partly Cloudy,250,2013-09-08 19:35:00
2:55 PM,93.2,64.4,38,29.93,10.0,WSW,3.5,-,N/A,,Clear,250,2013-09-08 19:55:00
3:15 PM,91.4,62.6,38,29.93,10.0,West,3.5,-,N/A,,Clear,280,2013-09-08 20:15:00
3:55 PM,91.4,64.4,41,29.93,10.0,West,4.6,-,N/A,,Clear,260,2013-09-08 20:55:00
4:15 PM,93.2,64.4,38,29.92,10.0,WSW,4.6,-,N/A,,Clear,250,2013-09-08 21:15:00
4:16 PM,93.2,64.4,38,29.92,10.0,WSW,5.8,-,N/A,,Clear,240,2013-09-08 21:16:00
4:35 PM,93.2,62.6,36,29.92,10.0,WSW,4.6,-,N/A,,Clear,250,2013-09-08 21:35:00
4:55 PM,93.2,64.4,38,29.91,10.0,SW,3.5,-,N/A,,Clear,220,2013-09-08 21:55:00
5:15 PM,91.4,64.4,41,29.90,10.0,SW,5.8,-,N/A,,Clear,230,2013-09-08 22:15:00
5:35 PM,91.4,64.4,41,29.91,10.0,Calm,Calm,-,N/A,,Clear,0,2013-09-08 22:35:00
5:55 PM,91.4,64.4,41,29.91,10.0,Calm,Calm,-,N/A,,Clear,0,2013-09-08 22:55:00
6:15 PM,89.6,64.4,43,29.92,10.0,Calm,Calm,-,N/A,,Clear,0,2013-09-08 23:15:00
6:35 PM,87.8,64.4,46,29.92,10.0,Calm,Calm,-,N/A,,Clear,0,2013-09-08 23:35:00
6:55 PM,86.0,64.4,48,29.92,10.0,Calm,Calm,-,N/A,,Clear,0,2013-09-08 23:55:00
7:15 PM,84.2,64.4,51,29.92,10.0,Calm,Calm,-,N/A,,Clear,0,2013-09-09 00:15:00
7:35 PM,84.2,64.4,51,29.92,10.0,Calm,Calm,-,N/A,,Clear,0,2013-09-09 00:35:00
7:56 PM,82.4,64.4,54,29.93,10.0,SSE,3.5,-,N/A,,Clear,150,2013-09-09 00:56:00
8:15 PM,82.4,62.6,51,29.93,10.0,Calm,Calm,-,N/A,,Clear,0,2013-09-09 01:15:00
8:35 PM,80.6,64.4,58,29.94,10.0,Calm,Calm,-,N/A,,Clear,0,2013-09-09 01:35:00
8:55 PM,80.6,64.4,58,29.95,10.0,Calm,Calm,-,N/A,,Clear,0,2013-09-09 01:55:00
9:15 PM,80.6,64.4,58,29.95,10.0,East,3.5,-,N/A,,Clear,100,2013-09-09 02:15:00
9:35 PM,80.6,64.4,58,29.95,10.0,SE,4.6,-,N/A,,Clear,130,2013-09-09 02:35:00
9:56 PM,80.6,62.6,54,29.96,10.0,SE,5.8,-,N/A,,Clear,140,2013-09-09 02:56:00
10:15 PM,80.6,62.6,54,29.96,10.0,SSE,3.5,-,N/A,,Clear,160,2013-09-09 03:15:00
10:35 PM,80.6,62.6,54,29.95,10.0,SSE,4.6,-,N/A,,Clear,160,2013-09-09 03:35:00
10:55 PM,80.6,62.6,54,29.96,10.0,South,4.6,-,N/A,,Clear,180,2013-09-09 03:55:00
11:15 PM,78.8,62.6,57,29.96,10.0,South,4.6,-,N/A,,Clear,180,2013-09-09 04:15:00
11:35 PM,78.8,62.6,57,29.96,10.0,South,3.5,-,N/A,,Clear,170,2013-09-09 04:35:00
11:55 PM,78.8,62.6,57,29.96,10.0,South,3.5,-,N/A,,Clear,180,2013-09-09 04:55:00